FW1494 Weather Reports


time (UTC)temp
C
wind
direction
speed
KPH
gust
KPH
rain 1hr
cm
rain 24hr
cm
rain mn
cm
humidity
%
barometer
mb
20260509234519 15 242 30.6 43.5 0.00 0.33 0.03 96 1006.3
20260509234016 15 233 27.4 37.0 0.00 0.33 0.03 96 1006.6
20260509233749 15 240 27.4 38.6 0.00 0.33 0.03 97 1006.6
20260509233011 15 227 25.7 45.1 0.00 0.33 0.03 96 1006.6
20260509232511 15 233 32.2 45.1 0.00 0.33 0.03 96 1006.8
20260509232242 15 216 20.9 33.8 0.00 0.33 0.03 96 1006.8
20260509231508 15 234 25.7 56.3 0.00 0.33 0.03 96 1006.7
20260509231004 16 250 37.0 56.3 0.00 0.33 0.03 94 1006.7
20260509230458 17 242 25.7 38.6 0.00 0.33 0.03 93 1006.6
20260509230231 16 218 24.1 38.6 0.00 0.33 0.03 93 1006.5
20260509225455 17 250 27.4 37.0 0.00 0.33 0.03 93 1006.4
20260509224957 17 234 29.0 41.8 0.00 0.33 0.03 93 1006.6
20260509224458 16 225 29.0 41.8 0.00 0.33 0.03 93 1006.5
20260509223951 17 216 27.4 37.0 0.00 0.33 0.03 93 1006.4
20260509223452 16 229 24.1 35.4 0.00 0.33 0.03 93 1006.5
20260509222952 16 244 22.5 41.8 0.00 0.33 0.03 94 1006.4
20260509222451 16 242 32.2 41.8 0.00 0.33 0.03 94 1006.5
20260509221948 16 231 25.7 37.0 0.00 0.33 0.03 95 1006.2
20260509221448 16 241 27.4 41.8 0.00 0.33 0.03 95 1006.4
20260509220942 16 242 27.4 41.8 0.00 0.33 0.03 95 1006.2
20260509220439 16 238 27.4 35.4 0.00 0.33 0.03 95 1006.2
20260509215941 16 215 25.7 35.4 0.00 0.33 0.03 96 1006.2
20260509215708 16 227 20.9 32.2 0.00 0.33 0.03 96 1006.2
20260509214933 16 237 25.7 32.2 0.00 0.33 0.03 96 1006.3
20260509214432 16 242 22.5 32.2 0.03 0.33 0.03 95 1006.3
20260509213927 15 229 20.9 32.2 0.03 0.33 0.03 95 1006.3
20260509213429 15 220 24.1 32.2 0.03 0.33 0.03 96 1006.3
20260509212927 15 237 19.3 27.4 0.03 0.33 0.03 96 1006.2
20260509212427 15 228 14.5 24.1 0.03 0.33 0.03 97 1006.3
20260509211923 15 242 16.1 27.4 0.03 0.33 0.03 97 1006.3
20260509211419 15 228 17.7 30.6 0.03 0.33 0.03 97 1006.3
20260509210919 15 247 22.5 30.6 0.03 0.33 0.03 96 1006.3
20260509210419 15 229 14.5 22.5 0.03 0.33 0.03 96 1006.2
20260509205918 15 231 19.3 25.7 0.03 0.33 0.03 96 1006.3
20260509205413 15 241 19.3 25.7 0.03 0.33 0.03 97 1006.3
20260509205145 14 234 16.1 25.7 0.03 0.33 0.03 97 1006.1
20260509204409 14 221 12.9 25.7 0.00 0.33 0.03 97 1006.0
20260509203905 14 236 16.1 20.9 0.00 0.33 0.00 97 1006.1
20260509203642 13 240 16.1 22.5 0.00 0.33 0.00 98 1006.0
20260509202905 13 229 14.5 22.5 0.00 0.33 0.00 98 1006.0
20260509202405 13 225 14.5 22.5 0.00 0.33 0.00 98 1005.9
20260509201908 13 246 14.5 27.4 0.00 0.33 0.00 98 1005.9
20260509201640 13 226 17.7 27.4 0.00 0.33 0.00 98 1005.8
20260509200859 13 194 16.1 22.5 0.00 0.33 0.00 98 1005.8
20260509200355 13 236 11.3 14.5 0.00 0.33 0.00 99 1005.7
20260509200131 13 243 8.0 11.3 0.00 0.33 0.00 98 1005.6
20260509195353 13 246 6.4 12.9 0.00 0.33 0.00 99 1005.6
20260509194853 13 246 6.4 12.9 0.00 0.33 0.00 99 1005.6
20260509194352 12 238 4.8 9.7 0.00 0.33 0.00 99 1005.6
20260509193852 12 265 3.2 6.4 0.00 0.33 0.00 99 1005.5
20260509193345 12 244 3.2 4.8 0.00 0.33 0.00 98 1005.5
20260509192846 12 265 1.6 8.0 0.00 0.33 0.00 98 1005.5
20260509192343 12 251 4.8 9.7 0.00 0.33 0.00 98 1005.5
20260509191841 12 237 3.2 9.7 0.00 0.33 0.00 98 1005.5
20260509191341 12 228 4.8 17.7 0.00 0.33 0.00 98 1005.5
20260509190841 12 208 6.4 17.7 0.00 0.33 0.00 99 1005.5
20260509190340 12 228 8.0 12.9 0.00 0.33 0.00 99 1005.4
20260509185828 12 232 9.7 12.9 0.00 0.33 0.00 98 1005.3
20260509185322 12 256 6.4 8.0 0.00 0.33 0.00 97 1005.3
20260509184817 12 253 4.8 12.9 0.00 0.33 0.00 97 1005.3
20260509184317 12 253 8.0 14.5 0.00 0.33 0.00 97 1005.3
20260509183817 12 248 9.7 14.5 0.00 0.33 0.00 97 1005.3
20260509183314 12 232 9.7 16.1 0.00 0.33 0.00 97 1005.3
20260509182813 12 211 11.3 25.7 0.00 0.33 0.00 97 1005.4
20260509182314 12 227 17.7 32.2 0.00 0.33 0.00 97 1005.4
20260509181810 12 233 25.7 32.2 0.00 0.33 0.00 97 1005.3
20260509181304 11 227 8.0 11.3 0.00 0.33 0.00 97 1005.2
20260509180803 11 229 3.2 4.8 0.00 0.33 0.00 97 1005.0
20260509180532 11 241 3.2 8.0 0.00 0.33 0.00 97 1005.0
20260509175755 11 241 6.4 11.3 0.00 0.33 0.00 97 1005.0
20260509175519 11 231 8.0 11.3 0.00 0.33 0.00 97 1005.0
20260509174745 11 237 6.4 11.3 0.00 0.33 0.00 97 1004.9
20260509174517 11 240 3.2 12.9 0.00 0.33 0.00 97 1005.0
20260509173735 12 240 6.4 12.9 0.00 0.33 0.00 97 1004.9
20260509173226 12 242 9.7 12.9 0.00 0.33 0.00 97 1004.9
20260509172726 11 250 6.4 12.9 0.00 0.33 0.00 97 1004.9
20260509172220 11 246 6.4 12.9 0.00 0.33 0.00 97 1004.8
20260509171950 11 239 6.4 9.7 0.00 0.33 0.00 97 1004.8
20260509171217 11 228 6.4 9.7 0.00 0.33 0.00 97 1004.7
20260509170713 11 224 6.4 11.3 0.00 0.33 0.00 97 1004.7
20260509170207 11 240 8.0 12.9 0.00 0.33 0.00 97 1004.8
20260509165702 11 233 9.7 14.5 0.00 0.33 0.00 97 1004.8
20260509165429 11 233 9.7 16.1 0.00 0.33 0.00 97 1004.7
20260509164935 11 228 9.7 16.1 0.00 0.33 0.00 97 1004.7
20260509164432 11 229 9.7 12.9 0.00 0.33 0.00 97 1004.6
20260509163931 12 221 9.7 16.1 0.00 0.33 0.00 97 1004.4
20260509163154 12 230 9.7 16.1 0.00 0.33 0.00 97 1004.5
20260509162649 12 231 9.7 16.1 0.00 0.33 0.00 97 1004.5
20260509162144 11 224 9.7 16.1 0.00 0.33 0.00 98 1004.5
20260509161646 11 232 8.0 14.5 0.00 0.33 0.00 99 1004.6
20260509161146 11 248 4.8 11.3 0.00 0.33 0.00 98 1004.6
20260509160641 11 248 4.8 8.0 0.00 0.33 0.00 98 1004.6
20260509160141 11 233 4.8 8.0 0.00 0.33 0.00 98 1004.5
20260509155627 11 233 6.4 8.0 0.00 0.33 0.00 98 1004.6
20260509155123 11 233 6.4 9.7 0.00 0.33 0.00 97 1004.6
20260509154625 11 233 6.4 14.5 0.00 0.33 0.00 97 1004.6
20260509154119 11 226 8.0 14.5 0.00 0.33 0.00 98 1004.7
20260509153616 11 242 9.7 14.5 0.00 0.33 0.00 98 1004.7
20260509153116 11 233 9.7 14.5 0.00 0.33 0.00 99 1004.8
20260509152611 11 248 8.0 12.9 0.00 0.33 0.00 99 1004.8
20260509152110 11 248 6.4 9.7 0.00 0.33 0.00 98 1004.8
20260509151612 11 220 6.4 8.0 0.00 0.33 0.00 98 1004.8
20260509151116 12 227 6.4 12.9 0.00 0.33 0.00 98 1004.9
20260509151111 11 232 6.4 12.9 0.00 0.33 0.00 98 1004.8
20260509150105 12 233 8.0 12.9 0.00 0.33 0.00 99 1004.9
20260509145601 12 229 8.0 12.9 0.00 0.33 0.00 99 1005.0
20260509145101 12 236 8.0 14.5 0.00 0.33 0.00 99 1005.0
20260509144601 12 246 9.7 14.5 0.00 0.33 0.00 100 1004.9
20260509144333 12 241 9.7 14.5 0.00 0.33 0.00 100 1004.8
20260509143835 12 246 9.7 12.9 0.00 0.33 0.00 100 1004.9
20260509143058 12 230 9.7 12.9 0.00 0.33 0.00 100 1005.0
20260509142831 12 236 8.0 12.9 0.00 0.33 0.00 100 1005.0
20260509142050 11 240 8.0 9.7 0.00 0.33 0.00 100 1005.1
20260509141815 12 226 8.0 9.7 0.00 0.33 0.00 100 1005.1
20260509141301 12 225 6.4 9.7 0.00 0.33 0.00 100 1005.1
20260509140530 12 221 6.4 9.7 0.00 0.33 0.00 100 1005.1
20260509140028 12 205 1.6 9.7 0.00 0.33 0.00 100 1005.1
20260509135522 12 182 6.4 12.9 0.00 0.33 0.00 100 1005.1
20260509135023 12 227 8.0 12.9 0.00 0.33 0.00 100 1005.1
20260509134753 12 227 9.7 12.9 0.00 0.33 0.00 100 1005.0
20260509134013 12 238 8.0 12.9 0.00 0.33 0.00 100 1004.9
20260509133518 12 248 8.0 12.9 0.00 0.33 0.00 100 1004.9
20260509133014 12 252 8.0 11.3 0.00 0.33 0.00 100 1004.8
20260509132510 12 237 6.4 9.7 0.00 0.33 0.00 100 1004.9
20260509132010 12 232 8.0 9.7 0.00 0.33 0.00 100 1004.9
20260509131506 12 223 4.8 8.0 0.00 0.33 0.00 100 1004.9
20260509130957 12 223 3.2 6.4 0.00 0.33 0.00 100 1004.9
20260509130456 12 203 1.6 6.4 0.00 0.33 0.00 100 1004.9
20260509125953 12 203 3.2 8.0 0.00 0.33 0.00 100 1004.8
20260509125448 12 204 6.4 9.7 0.00 0.33 0.00 100 1004.8
20260509124947 13 225 8.0 12.9 0.00 0.33 0.00 100 1004.8
20260509124445 13 228 9.7 16.1 0.03 0.33 0.00 100 1004.8
20260509123941 13 215 9.7 17.7 0.03 0.33 0.00 100 1004.8
20260509123441 13 230 12.9 19.3 0.03 0.33 0.00 100 1004.9
20260509122937 13 219 12.9 19.3 0.03 0.33 0.00 100 1004.9
20260509122433 13 227 11.3 19.3 0.03 0.36 0.00 100 1004.9
20260509121933 13 208 11.3 19.3 0.03 0.36 0.00 100 1005.0
20260509121433 13 220 12.9 16.1 0.03 0.38 0.00 100 1005.2
20260509120925 13 242 6.4 9.7 0.03 0.38 0.00 100 1005.3
20260509120425 13 239 8.0 9.7 0.03 0.41 0.00 100 1005.2
20260509115926 13 227 6.4 11.3 0.03 0.41 0.41 100 1005.2
20260509115423 13 224 8.0 12.9 0.03 0.41 0.41 100 1005.1
20260509114916 13 229 8.0 14.5 0.03 0.41 0.41 100 1005.2
20260509114416 13 232 8.0 17.7 0.00 0.41 0.38 100 1005.3
20260509113915 13 250 12.9 20.9 0.00 0.41 0.38 100 1005.4
20260509113413 13 247 14.5 20.9 0.00 0.41 0.38 100 1005.5
20260509112908 13 223 8.0 16.1 0.00 0.41 0.38 100 1005.4
20260509112408 13 251 9.7 19.3 0.00 0.41 0.38 100 1005.4
20260509111908 13 254 12.9 19.3 0.00 0.41 0.38 100 1005.4
20260509111407 13 271 11.3 19.3 0.00 0.43 0.38 100 1005.4
20260509110903 13 290 11.3 14.5 0.00 0.46 0.38 100 1005.4
20260509110357 13 288 9.7 14.5 0.00 0.48 0.38 100 1005.3
20260509105853 13 284 9.7 12.9 0.00 0.48 0.38 100 1005.2
20260509105630 13 284 9.7 12.9 0.00 0.48 0.38 100 1005.2
20260509104839 13 284 8.0 12.9 0.00 0.48 0.38 100 1005.1
20260509104337 13 284 6.4 11.3 0.00 0.48 0.38 100 1005.2
20260509104111 12 284 4.8 9.7 0.00 0.48 0.38 100 1005.2
20260509103334 12 284 4.8 9.7 0.00 0.48 0.38 100 1005.2
20260509102833 12 284 4.8 9.7 0.00 0.48 0.38 100 1005.1
20260509102327 12 284 4.8 9.7 0.00 0.48 0.38 99 1004.9
20260509101819 12 284 4.8 9.7 0.00 0.48 0.38 99 1004.7
20260509101316 12 284 6.4 9.7 0.00 0.48 0.38 99 1004.7
20260509100813 13 284 3.2 9.7 0.00 0.48 0.38 99 1004.9
20260509100543 13 284 4.8 9.7 0.00 0.48 0.38 99 1005.1
20260509095810 13 284 4.8 9.7 0.00 0.48 0.38 99 1005.1
20260509095309 13 284 1.6 6.4 0.00 0.48 0.38 99 1005.0
20260509094804 13 284 3.2 4.8 0.00 0.48 0.38 99 1005.1
20260509094302 13 284 3.2 4.8 0.00 0.48 0.38 99 1005.0
20260509093744 13 284 0.0 6.4 0.00 0.48 0.38 99 1004.9
20260509093242 13 284 3.2 9.7 0.00 0.48 0.38 99 1004.9
20260509092739 13 284 3.2 9.7 0.00 0.48 0.38 99 1004.9
20260509092509 13 284 4.8 11.3 0.00 0.48 0.38 99 1005.0
20260509091737 13 284 4.8 11.3 0.00 0.48 0.38 99 1005.0
20260509091234 13 284 4.8 11.3 0.00 0.48 0.38 99 1005.0
20260509090730 13 284 6.4 11.3 0.00 0.48 0.38 99 1005.1
20260509090231 13 284 6.4 16.1 0.03 0.48 0.38 99 1005.1
20260509085730 13 284 4.8 16.1 0.05 0.48 0.38 99 1005.3
20260509085229 13 288 6.4 12.9 0.05 0.48 0.38 99 1005.4
20260509084731 13 288 4.8 12.9 0.05 0.48 0.38 99 1005.4
20260509084227 13 308 6.4 12.9 0.08 0.48 0.38 99 1005.5
20260509083724 13 313 4.8 11.3 0.08 0.48 0.38 99 1005.4
20260509083222 13 290 6.4 12.9 0.08 0.48 0.38 99 1005.5
20260509082719 13 299 8.0 12.9 0.08 0.48 0.38 99 1005.5
20260509082215 13 288 4.8 8.0 0.10 0.48 0.38 99 1005.5
20260509081716 13 288 6.4 12.9 0.10 0.48 0.38 99 1005.4
20260509081217 13 288 8.0 14.5 0.13 0.48 0.38 98 1005.5
20260509080711 13 288 9.7 20.9 0.10 0.46 0.38 98 1005.7
20260509080206 13 284 14.5 20.9 0.10 0.46 0.36 98 1005.6
20260509075950 14 316 12.9 20.9 0.10 0.43 0.33 99 1005.6
20260509075204 14 286 12.9 22.5 0.08 0.43 0.33 98 1005.6
20260509074654 14 337 12.9 22.5 0.10 0.43 0.33 99 1005.7
20260509074155 14 281 9.7 16.1 0.10 0.41 0.30 98 1005.5
20260509073655 14 281 11.3 14.5 0.13 0.41 0.30 98 1005.5
20260509073149 14 281 8.0 14.5 0.15 0.41 0.30 98 1005.4
20260509072646 14 281 8.0 19.3 0.15 0.41 0.30 98 1005.4
20260509072417 14 280 9.7 20.9 0.13 0.38 0.30 98 1005.4
20260509071636 14 285 12.9 20.9 0.13 0.38 0.28 98 1005.3
20260509071131 14 289 9.7 19.3 0.10 0.36 0.25 98 1005.3
20260509070634 15 284 12.9 17.7 0.15 0.36 0.25 98 1005.0
20260509070124 15 277 12.9 17.7 0.15 0.36 0.25 98 1004.9
20260509065623 15 287 6.4 12.9 0.15 0.33 0.23 98 1004.9
20260509065118 15 287 6.4 11.3 0.15 0.33 0.23 98 1004.7
20260509064619 15 288 4.8 8.0 0.13 0.33 0.23 97 1004.7
20260509064113 15 288 3.2 11.3 0.10 0.30 0.20 97 1004.7
20260509063847 15 289 4.8 11.3 0.08 0.28 0.18 97 1004.8
20260509063104 15 287 4.8 11.3 0.05 0.25 0.15 97 1004.7
20260509062604 15 287 4.8 11.3 0.05 0.25 0.15 96 1004.8
20260509062335 15 287 4.8 12.9 0.05 0.25 0.15 96 1004.8
20260509061829 15 287 6.4 12.9 0.05 0.25 0.15 96 1004.7
20260509061054 15 292 6.4 14.5 0.05 0.25 0.15 96 1004.7
20260509060554 15 302 11.3 19.3 0.03 0.23 0.13 96 1004.7
20260509060050 15 284 11.3 19.3 0.00 0.20 0.10 96 1004.7
20260509055552 16 284 9.7 17.7 0.00 0.20 0.10 96 1004.6
20260509055050 16 288 8.0 17.7 0.00 0.20 0.10 96 1004.6
20260509054541 16 288 9.7 17.7 0.00 0.23 0.10 96 1004.7
20260509054046 16 294 12.9 20.9 0.00 0.23 0.10 96 1004.7
20260509053542 16 285 11.3 20.9 0.00 0.23 0.10 96 1004.7
20260509053037 16 286 12.9 19.3 0.00 0.23 0.10 96 1004.6
20260509052532 16 277 11.3 17.7 0.00 0.23 0.10 96 1004.6
20260509052030 16 283 12.9 17.7 0.00 0.23 0.10 96 1004.4
20260509051528 16 302 12.9 17.7 0.00 0.23 0.10 96 1004.4
20260509051023 16 286 11.3 17.7 0.00 0.23 0.10 96 1004.5
20260509050520 16 277 9.7 20.9 0.00 0.23 0.10 96 1004.4
20260509050020 16 275 12.9 20.9 0.00 0.23 0.10 96 1004.6
20260509045516 16 286 12.9 19.3 0.00 0.23 0.10 96 1004.5
20260509045014 16 274 11.3 19.3 0.00 0.23 0.10 96 1004.5
20260509044742 16 270 14.5 19.3 0.00 0.23 0.10 96 1004.5
20260509044001 17 273 11.3 19.3 0.00 0.23 0.10 95 1004.6
20260509043503 17 288 14.5 20.9 0.00 0.23 0.10 95 1004.6
20260509043006 17 286 14.5 20.9 0.00 0.23 0.10 95 1004.4
20260509043001 17 288 11.3 20.9 0.00 0.23 0.10 95 1004.4
20260509041954 17 288 9.7 20.9 0.00 0.23 0.10 95 1004.5
20260509041451 17 310 14.5 19.3 0.00 0.23 0.10 95 1004.5
20260509040947 17 303 11.3 17.7 0.00 0.23 0.10 95 1004.5
20260509040444 17 286 9.7 22.5 0.00 0.23 0.10 95 1004.1
20260509035940 17 288 14.5 25.7 0.00 0.23 0.10 94 1004.4
20260509035441 17 282 16.1 25.7 0.00 0.23 0.10 93 1004.6
20260509034941 17 296 14.5 19.3 0.00 0.23 0.10 94 1004.7
20260509034438 17 273 9.7 17.7 0.00 0.23 0.10 94 1004.8
20260509033933 17 273 14.5 24.1 0.00 0.23 0.10 94 1004.9
20260509033710 17 275 19.3 27.4 0.00 0.23 0.10 93 1004.9
20260509032929 17 302 17.7 27.4 0.00 0.23 0.10 93 1004.9
20260509032425 18 277 16.1 27.4 0.00 0.23 0.10 93 1005.1
20260509031919 18 307 12.9 20.9 0.00 0.23 0.10 93 1005.1
20260509031416 18 254 12.9 22.5 0.00 0.23 0.10 93 1005.2
20260509030910 18 284 14.5 22.5 0.00 0.23 0.10 93 1005.2
20260509030646 18 311 14.5 20.9 0.00 0.23 0.10 93 1005.2
20260509025907 18 279 16.1 20.9 0.00 0.23 0.10 92 1005.3
20260509025403 18 297 16.1 25.7 0.00 0.23 0.10 92 1005.2
20260509024905 18 300 16.1 25.7 0.00 0.23 0.10 92 1005.2
20260509024359 18 309 14.5 22.5 0.00 0.23 0.10 92 1005.2
20260509024131 18 309 17.7 22.5 0.00 0.23 0.10 91 1005.1
20260509023357 18 283 16.1 22.5 0.00 0.23 0.10 91 1005.1
20260509022850 18 284 17.7 22.5 0.00 0.23 0.10 91 1005.2
20260509022351 18 286 14.5 27.4 0.00 0.23 0.10 90 1005.1
20260509021846 18 314 17.7 27.4 0.00 0.23 0.10 88 1005.1
20260509021341 19 292 19.3 25.7 0.00 0.23 0.10 87 1005.0
20260509020841 20 274 16.1 22.5 0.00 0.23 0.10 88 1005.0
20260509020337 20 282 11.3 16.1 0.00 0.23 0.10 89 1005.0
20260509015839 19 282 8.0 19.3 0.00 0.23 0.10 90 1004.9
20260509015338 19 282 9.7 24.1 0.00 0.23 0.10 89 1005.0
20260509014837 19 234 16.1 24.1 0.00 0.23 0.10 89 1005.0
20260509014614 19 307 16.1 24.1 0.00 0.23 0.10 89 1005.2
20260509013837 19 286 17.7 24.1 0.00 0.23 0.10 89 1005.1
20260509013337 19 288 16.1 25.7 0.00 0.23 0.10 89 1005.1
20260509012841 18 296 17.7 25.7 0.00 0.23 0.10 90 1005.2
20260509012338 18 286 14.5 22.5 0.00 0.23 0.10 91 1005.2
20260509012108 18 254 17.7 22.5 0.00 0.23 0.10 89 1005.3
20260509011350 19 251 17.7 20.9 0.00 0.23 0.10 88 1005.5
20260509011345 19 249 14.5 20.9 0.00 0.23 0.10 89 1005.4
20260509010332 19 285 12.9 20.9 0.00 0.23 0.10 89 1005.5
20260509005832 19 291 17.7 25.7 0.00 0.23 0.10 89 1005.5
20260509005559 19 284 19.3 27.4 0.00 0.23 0.10 89 1005.6
20260509004823 19 286 14.5 27.4 0.00 0.23 0.10 90 1005.7
20260509004322 19 286 19.3 27.4 0.00 0.23 0.10 89 1005.8
20260509004049 19 283 20.9 30.6 0.00 0.23 0.10 89 1005.9
20260509003552 19 280 20.9 32.2 0.00 0.23 0.10 89 1006.0
20260509002814 19 284 17.7 32.2 0.00 0.23 0.10 89 1006.1
20260509002542 19 290 22.5 30.6 0.00 0.23 0.10 90 1006.1
20260509002039 18 292 17.7 27.4 0.00 0.23 0.10 91 1006.3
20260509001306 18 248 14.5 27.4 0.00 0.23 0.10 91 1006.4
20260509000806 18 269 20.9 27.4 0.00 0.23 0.10 90 1006.5
20260509000307 19 282 19.3 30.6 0.00 0.23 0.10 91 1006.6
20260509000027 18 281 19.3 30.6 0.00 0.23 0.10 92 1006.8
20260508235306 18 290 16.1 20.9 0.00 0.23 0.10 92 1006.8